Regional Weather Roundup
Issued by NWS Boston, MA

Home | Current Version | Previous Version | Text Only | Print | Product List | Glossary On
Versions: 1 2 3 4 5 6 7 8 9 10 11 12 13 14 15 16 17 18 19 20 21 22 23 24 25 26 27 28
000
ASUS41 KBOX 190710
RWRBOX

REGIONAL WEATHER ROUNDUP
NATIONAL WEATHER SERVICE TAUNTON MA
200 AM EST SUN NOV 19 2017

NOTE:  "FAIR" INDICATES FEW OR NO CLOUDS BELOW 12,000 FEET WITH NO
SIGNIFICANT WEATHER AND/OR OBSTRUCTIONS TO VISIBILITY.

MAZALL-190800-
EASTERN MASSACHUSETTS

CITY           SKY/WX    TMP DP  RH WIND       PRES   REMARKS
BOSTON         LGT RAIN  53  52  96 S13       29.39F
BEVERLY        CLOUDY    53  51  93 S9        29.37F
LAWRENCE       CLOUDY    52  49  89 SE3       29.39F
BEDFORD        LGT RAIN  52  50  93 S9        29.36F
BLUE HILL      NOT AVBL
NORWOOD        CLOUDY    57  54  89 S9        29.38F
MARSHFIELD     CLOUDY    59  55  88 SW16G26   29.40F
PLYMOUTH       CLOUDY    60  54  80 S16G23    29.42F
TAUNTON        CLOUDY    60  54  80 S12G25    29.40F
NEW BEDFORD    CLOUDY    59  54  83 SW18G30   29.42F
$$

MAZALL-190800-
CAPE COD AND THE ISLANDS

CITY           SKY/WX    TMP DP  RH WIND       PRES   REMARKS
FALMOUTH       CLOUDY    61  54  77 SW28G38   29.45F
HYANNIS        PTCLDY    58  54  86 S15G25    29.45F
CHATHAM        CLOUDY    57  54  89 S12G26    29.49F
PROVINCETOWN   CLOUDY    56  53  90 S15G25    29.44F
NANTUCKET      CLOUDY    57  55  93 S17       29.50F
MARTHAS VNYRD  CLOUDY    60  55  83 S18G25    29.46F
$$

MAZALL-190800-
CENTRAL AND WESTERN MASSACHUSETTS

CITY           SKY/WX    TMP DP  RH WIND       PRES   REMARKS
WORCESTER      CLOUDY    51  48  89 S16       29.35F
FITCHBURG      LGT RAIN  41  40  96 CALM      29.37F
ORANGE         CLOUDY    49  49 100 S10       29.33F
SPRINGFIELD    CLOUDY    39  38  95 CALM      29.33F
WESTFIELD      CLOUDY    37  36  96 NE3       29.33F FOG
NORTH ADAMS    LGT RAIN  51  45  79 VRB6G21   29.28F
PITTSFIELD     LGT RAIN  49  44  83 S14G22    29.28F
$$

RIZALL-190800-
RHODE ISLAND

CITY           SKY/WX    TMP DP  RH WIND       PRES   REMARKS
PROVIDENCE     CLOUDY    59  56  89 S14       29.40F
NEWPORT        CLOUDY    60  55  83 S15G35    29.41F
BLOCK ISLAND   CLOUDY    61  56  83 SW24G35   29.42F
SMITHFIELD     CLOUDY    56  53  90 SW9G20    29.38F
WESTERLY       CLOUDY    61  57  87 SW16G24   29.41F
$$

CTZALL-190800-
CONNECTICUT

CITY           SKY/WX    TMP DP  RH WIND       PRES   REMARKS
BRADLEY INTL   CLOUDY    40  39  97 CALM      29.34F
HARTFORD       CLOUDY    57  53  86 S13       29.33F
BRIDGEPORT     CLOUDY    58  52  80 SW20      29.35F
DANBURY        CLOUDY    55  51  86 S9G18     29.34F
GROTON         CLOUDY    60  55  83 SW20      29.39F
NEW HAVEN      CLOUDY    59  52  77 S14G25    29.36F
CHESTER        CLOUDY    59  54  82 S17G28    29.37F
MERIDEN        CLOUDY    56  52  86 S14G20    29.35F
WILLIMANTIC    CLOUDY    58  53  84 S15G24    29.37F
OXFORD         CLOUDY    54  52  93 S9G18     29.35F
$$

MEZ002-015-021-024-NHZ003-005-008-011-012-014-VTZ005-008-190800-
NORTHERN NEW ENGLAND

CITY           SKY/WX    TMP DP  RH WIND       PRES   REMARKS
PORTLAND ME    LGT RAIN  50  48  93 S7        29.41F
BANGOR ME      LGT RAIN  48  46  93 S12       29.46F
CONCORD NH     LGT RAIN  35  34  96 CALM      29.37F FOG
MANCHESTER NH  FOG       38  38 100 CALM      29.36F VSB 1/2
NASHUA NH      CLOUDY    37  37 100 NW3       29.37F FOG
PORTSMOUTH NH  LGT RAIN  49  48  97 SE6       29.38F FOG
JAFFREY NH     LGT RAIN  50  49  96 S9        29.33F
KEENE NH       LGT RAIN  39  37  92 CALM      29.32F FOG
BURLINGTON VT  CLOUDY    41  38  89 SE7       29.22F
MT. WASHINGTON RAIN      32  32 100 SW39G66     N/A  VSB 0   WCI  16
$$

NYZ052-076-190800-
EASTERN NEW YORK

CITY           SKY/WX    TMP DP  RH WIND       PRES   REMARKS
ALBANY         LGT RAIN  46  43  89 S14G23    29.24F
NEW YORK CITY  LGT RAIN  58  51  78 S12       29.32F
$$

ANZALL-190800-
MARINE OBSERVATIONS

STATION/POSITION TIME  TEMP    WIND        PRES    VSBY  WAVE
                       AIR SEA DIR/SP/G                  HT/PER
                 (UTC) (F)     (DEG/KT/KT) (MB)    (MI)  (FT/S)
BOSTON BUOY      0550   53 51  170/ 10/ 12  996.1          2/ 4
BUZZARDS BAY     0600   60     200/ 30/ 34  997.6F
NANTUCKET SOUND  0550   56 50  190/ 17/ 21  998.9          2/ 3
MASS BAY-STELLWA 0604   52 50  170/ 10/ 12  996.0F         2/ 4
ISLE OF SHOALS   0600   51     180/ 12/ 13  996.5F
S OF BLOCK IS    NOT AVBL
$$

......................KEY.........................
  SKY/WX - SKY CONDITION/PRESENT WEATHER
  TMP    - TEMPERATURE IN FAHRENHEIT
  DWPT   - DEWPOINT IN FAHRENHEIT
  RH     - RELATIVE HUMIDITY IN PERCENT
  WIND   - DIRECTION AND SPEED IN MPH
  PRES   - MEAN SEA LEVEL PRESSURE IN INCHES OF HG
  WCI    - WIND CHILL INDEX
  VSB    - VISIBILITY IN MILES
  HX     - HEAT INDEX
  TC     - TEMPERATURE IN CELSIUS
  VRB    - VARIABLE WIND DIRECTION
  N/A    - NOT AVAILABLE




USA.gov is the U.S. government's official web portal to all federal, state and local government web resources and services.